KLM809 EHAM-WMKK

Flight info

Callsign KLM809
Flight time N/A
Altitude 35000
Route ARNEM L620 HMM DCT NOMKA DCT OMELO DCT PEPIK DCT BUDOP DCT LUGEB DCT UDROS UM859 KARDE UN644 FALAZ/N0495F370 UN644 ROLIN DCT TAGAR DCT BT DCT BARAD M747 SUBUT T923 ERLEV M11 RODAR A909 LEMOD N644 DI A466 ELKUX/N0493F390 A466 DPN L759 PUT B579 VPL Y503 RINBA Y507 KAKAK KAKAK1G
Aircraft B789/H-SDE2E3GHIJ1J3J5P2RWXYZ/LD1B1

Departure

Time 2026-05-04 05:54
Airport Amsterdam Airport Schiphol (EHAM)

Arrival

Time N/A
Airport Kuala Lumpur International Airport (WMKK)
Time Latitude Longitude Altitude Speed Heading
2026-05-04 05:26 52.31285 4.76924 4 ft 0 kts 303°
2026-05-04 05:40 52.31277 4.76945 4 ft 4 kts 300°
2026-05-04 05:40 52.31264 4.76983 4 ft 4 kts 303°
2026-05-04 05:41 52.31252 4.77008 4 ft 4 kts 14°
2026-05-04 05:41 52.31259 4.77040 4 ft 3 kts 72°
2026-05-04 05:41 52.31263 4.77049 4 ft 4 kts 61°
2026-05-04 05:41 52.31281 4.77080 4 ft 4 kts 46°
2026-05-04 05:42 52.31293 4.77114 4 ft 2 kts 67°
2026-05-04 05:42 52.31296 4.77151 4 ft 4 kts 87°
2026-05-04 05:42 52.31295 4.77195 4 ft 4 kts 94°
2026-05-04 05:42 52.31293 4.77239 4 ft 4 kts 94°
2026-05-04 05:43 52.31292 4.77260 4 ft 0 kts 92°
2026-05-04 05:45 52.31292 4.77268 4 ft 2 kts 92°
2026-05-04 05:47 52.31243 4.77515 4 ft 5 kts 189°
2026-05-04 05:47 52.31196 4.77503 4 ft 9 kts 189°
2026-05-04 05:47 52.31125 4.77494 4 ft 12 kts 182°
2026-05-04 05:48 52.31031 4.77487 4 ft 15 kts 183°
2026-05-04 05:48 52.30915 4.77477 4 ft 18 kts 184°
2026-05-04 05:48 52.30792 4.77463 4 ft 17 kts 182°
2026-05-04 05:48 52.30678 4.77457 4 ft 15 kts 173°
2026-05-04 05:49 52.30593 4.77522 4 ft 13 kts 152°
2026-05-04 05:49 52.30574 4.77538 4 ft 0 kts 152°
2026-05-04 05:51 52.30422 4.77652 4 ft 0 kts 206°
2026-05-04 05:51 52.30420 4.77648 4 ft 1 kts 225°
2026-05-04 05:52 52.30415 4.77637 4 ft 0 kts 237°
2026-05-04 05:52 52.30414 4.77634 5 ft 4 kts 237°
2026-05-04 05:53 52.30289 4.77311 1 ft 65 kts 238°
2026-05-04 05:54 52.24494 4.67831 1712 ft 225 kts 172°
2026-05-04 05:55 52.23165 4.68996 2520 ft 222 kts 130°
2026-05-04 05:55 52.22438 4.71239 3207 ft 227 kts 114°
2026-05-04 05:55 52.21799 4.73608 3952 ft 230 kts 115°
2026-05-04 05:55 52.21086 4.75973 4660 ft 234 kts 118°
2026-05-04 05:56 52.20212 4.78274 5153 ft 249 kts 124°
2026-05-04 05:56 52.19294 4.80844 5387 ft 273 kts 120°
2026-05-04 05:56 52.18338 4.83654 5501 ft 290 kts 120°
2026-05-04 05:56 52.17613 4.86613 6646 ft 273 kts 100°
2026-05-04 05:57 52.17667 4.89734 7372 ft 283 kts 71°
2026-05-04 05:57 52.18302 4.92792 8093 ft 287 kts 74°
2026-05-04 05:57 52.18838 4.95944 8869 ft 291 kts 74°
2026-05-04 05:57 52.19420 4.99138 9625 ft 296 kts 73°
2026-05-04 05:58 52.20034 5.02316 10246 ft 306 kts 73°
2026-05-04 05:58 52.20695 5.05773 10349 ft 333 kts 73°
2026-05-04 05:58 52.21393 5.09527 10438 ft 360 kts 73°
2026-05-04 05:58 52.22135 5.13511 11031 ft 367 kts 73°
2026-05-04 05:59 52.22885 5.17507 11759 ft 372 kts 73°
2026-05-04 05:59 52.23646 5.21570 12429 ft 377 kts 73°
2026-05-04 05:59 52.24292 5.25731 13059 ft 380 kts 86°
2026-05-04 05:59 52.24284 5.28637 13512 ft 380 kts 96°
2026-05-04 06:00 52.24073 5.32964 14117 ft 384 kts 96°
2026-05-04 06:00 52.23833 5.37321 14764 ft 388 kts 96°
2026-05-04 06:00 52.23600 5.41724 15381 ft 391 kts 96°
2026-05-04 06:00 52.23382 5.46173 15989 ft 395 kts 96°
2026-05-04 06:01 52.23156 5.50653 16564 ft 398 kts 97°
2026-05-04 06:01 52.22532 5.55034 17106 ft 396 kts 114°
2026-05-04 06:03 52.15166 5.85240 20547 ft 423 kts 114°
2026-05-04 06:03 52.14073 5.89699 21010 ft 426 kts 114°
2026-05-04 06:05 52.08090 6.22694 23763 ft 448 kts 102°
2026-05-04 06:05 52.07039 6.32723 24478 ft 452 kts 102°
2026-05-04 06:05 52.06505 6.37774 24795 ft 455 kts 102°
2026-05-04 06:06 52.05969 6.42855 25127 ft 457 kts 102°
2026-05-04 06:06 52.05429 6.47955 25437 ft 459 kts 102°
2026-05-04 06:06 52.04882 6.53078 25732 ft 462 kts 102°
2026-05-04 06:06 52.04338 6.58149 26042 ft 463 kts 102°
2026-05-04 06:07 52.03781 6.63323 26329 ft 466 kts 102°
2026-05-04 06:07 52.03222 6.68509 26623 ft 468 kts 102°
2026-05-04 06:07 52.02656 6.73721 26902 ft 469 kts 102°
2026-05-04 06:07 52.01984 6.78898 27146 ft 469 kts 107°
2026-05-04 06:08 52.01173 6.83978 27391 ft 471 kts 107°
2026-05-04 06:08 52.00348 6.89212 27669 ft 473 kts 107°
2026-05-04 06:08 51.99545 6.94324 27909 ft 475 kts 107°
2026-05-04 06:08 51.98723 6.99523 28176 ft 476 kts 107°
2026-05-04 06:09 51.97894 7.04728 28437 ft 477 kts 107°
2026-05-04 06:09 51.97056 7.09949 28656 ft 479 kts 107°
2026-05-04 06:11 51.90292 7.46457 30150 ft 488 kts 109°
2026-05-04 06:11 51.89307 7.51721 30344 ft 489 kts 109°
2026-05-04 06:13 51.83218 7.89265 31589 ft 497 kts 104°
2026-05-04 06:14 51.78713 8.22209 32620 ft 501 kts 104°
2026-05-04 06:14 51.77954 8.27709 32847 ft 501 kts 104°
2026-05-04 06:15 51.77193 8.33186 33041 ft 500 kts 105°
2026-05-04 06:15 51.76428 8.38669 33249 ft 500 kts 105°
2026-05-04 06:15 51.75663 8.44141 33464 ft 499 kts 105°
2026-05-04 06:15 51.74908 8.49521 33670 ft 498 kts 105°
2026-05-04 06:16 51.74142 8.54966 33853 ft 497 kts 105°
2026-05-04 06:16 51.73372 8.60401 34029 ft 497 kts 105°
2026-05-04 06:16 51.72608 8.65769 34190 ft 497 kts 105°
2026-05-04 06:16 51.71835 8.71201 34352 ft 497 kts 105°
2026-05-04 06:17 51.71060 8.76633 34507 ft 497 kts 105°
2026-05-04 06:17 51.70282 8.82054 34678 ft 497 kts 105°
2026-05-04 06:17 51.69501 8.87477 34813 ft 497 kts 105°
2026-05-04 06:17 51.68716 8.92912 34970 ft 497 kts 105°
2026-05-04 06:18 51.67132 9.03815 34982 ft 500 kts 105°
2026-05-04 06:20 51.60729 9.47126 34986 ft 498 kts 105°
2026-05-04 06:21 51.56662 9.74047 34985 ft 496 kts 106°
2026-05-04 06:22 51.55011 9.84838 34992 ft 498 kts 106°
2026-05-04 06:25 51.43192 10.60236 34999 ft 498 kts 106°
2026-05-04 06:26 51.41488 10.70998 35003 ft 499 kts 106°
2026-05-04 06:26 51.39777 10.81694 35013 ft 498 kts 106°
2026-05-04 06:27 51.35444 11.08524 35008 ft 498 kts 107°
2026-05-04 06:28 51.33690 11.19253 35006 ft 499 kts 107°
2026-05-04 06:28 51.31927 11.29983 35010 ft 499 kts 107°
2026-05-04 06:29 51.30156 11.40682 35007 ft 497 kts 107°
2026-05-04 06:29 51.28382 11.51343 34998 ft 496 kts 107°
2026-05-04 06:30 51.26602 11.61967 34994 ft 495 kts 107°
2026-05-04 06:30 51.24812 11.72582 34996 ft 496 kts 107°
2026-05-04 06:31 51.23006 11.83238 34998 ft 498 kts 107°
2026-05-04 06:31 51.21184 11.93909 35005 ft 498 kts 107°
2026-05-04 06:33 51.13837 12.36316 34995 ft 497 kts 107°
2026-05-04 06:34 51.11971 12.46929 34996 ft 497 kts 107°
2026-05-04 06:34 51.10101 12.57508 34999 ft 497 kts 107°
2026-05-04 06:36 51.02533 12.99660 34996 ft 496 kts 107°
2026-05-04 06:37 51.00619 13.10168 35000 ft 495 kts 107°
2026-05-04 06:37 50.98691 13.20693 35002 ft 496 kts 107°
2026-05-04 06:38 50.96769 13.31130 35016 ft 496 kts 108°
2026-05-04 06:40 50.88945 13.73001 35016 ft 496 kts 108°
2026-05-04 06:40 50.86962 13.83469 35015 ft 496 kts 108°
2026-05-04 06:41 50.84965 13.93925 35025 ft 495 kts 110°
2026-05-04 06:41 50.83608 13.98908 35048 ft 493 kts 122°
2026-05-04 06:41 50.81663 14.03344 35043 ft 492 kts 133°
2026-05-04 06:42 50.76891 14.11078 35024 ft 491 kts 136°
2026-05-04 06:44 50.57616 14.41484 35018 ft 489 kts 136°
2026-05-04 06:44 50.52792 14.49038 35018 ft 489 kts 136°
2026-05-04 06:45 50.47995 14.56529 35007 ft 490 kts 136°
2026-05-04 06:45 50.43156 14.64065 35004 ft 490 kts 136°
2026-05-04 06:46 50.39095 14.70367 35007 ft 490 kts 136°
2026-05-04 06:46 50.34242 14.77883 35011 ft 491 kts 136°
2026-05-04 06:48 50.14826 15.07716 34994 ft 489 kts 136°
2026-05-04 06:50 49.95377 15.37241 35016 ft 489 kts 136°
2026-05-04 06:51 49.90487 15.44607 35020 ft 490 kts 136°
2026-05-04 06:51 49.85587 15.51967 35021 ft 490 kts 136°
2026-05-04 06:52 49.80702 15.59288 35015 ft 488 kts 137°
2026-05-04 06:52 49.75826 15.66568 35016 ft 487 kts 137°
2026-05-04 06:53 49.70947 15.73833 35024 ft 488 kts 137°
2026-05-04 06:53 49.66044 15.81116 35031 ft 490 kts 137°
2026-05-04 06:54 49.61133 15.88382 35027 ft 488 kts 137°
2026-05-04 06:54 49.56233 15.95616 35034 ft 487 kts 137°
2026-05-04 06:55 49.51330 16.02832 35032 ft 488 kts 137°
2026-05-04 06:55 49.46416 16.10041 35037 ft 488 kts 137°
2026-05-04 06:57 49.26753 16.38687 35043 ft 488 kts 137°
2026-05-04 06:58 49.21818 16.45824 35040 ft 489 kts 137°
2026-05-04 06:58 49.16871 16.52956 35039 ft 489 kts 137°
2026-05-04 06:59 49.11917 16.60082 35042 ft 489 kts 137°
2026-05-04 06:59 49.06982 16.67157 35043 ft 490 kts 137°
2026-05-04 07:01 48.87004 16.95596 35057 ft 491 kts 137°
2026-05-04 07:02 48.82005 17.02661 35056 ft 491 kts 137°
2026-05-04 07:02 48.77313 17.10119 35107 ft 489 kts 123°
2026-05-04 07:03 48.73561 17.18680 35080 ft 492 kts 123°
2026-05-04 07:03 48.69778 17.27318 35081 ft 491 kts 123°
2026-05-04 07:04 48.65983 17.35903 35091 ft 491 kts 123°
2026-05-04 07:04 48.62195 17.44491 35098 ft 491 kts 123°
2026-05-04 07:05 48.58388 17.53061 35100 ft 492 kts 123°
2026-05-04 07:05 48.54574 17.61643 35103 ft 493 kts 123°
2026-05-04 07:06 48.48824 17.74513 35105 ft 492 kts 123°
2026-05-04 07:07 48.44992 17.83054 35105 ft 492 kts 123°
2026-05-04 07:09 48.29621 18.17063 35112 ft 492 kts 123°
2026-05-04 07:09 48.25782 18.25488 35113 ft 492 kts 124°
2026-05-04 07:10 48.21911 18.33957 35114 ft 492 kts 124°
2026-05-04 07:12 48.06412 18.67614 35112 ft 491 kts 124°
2026-05-04 07:12 48.02520 18.75998 35116 ft 491 kts 124°
2026-05-04 07:13 47.98620 18.84377 35124 ft 491 kts 124°
2026-05-04 07:13 47.94714 18.92739 35124 ft 492 kts 124°
2026-05-04 07:14 47.84891 19.13664 35149 ft 493 kts 124°
2026-05-04 07:15 47.80956 19.21999 35148 ft 491 kts 124°
2026-05-04 07:15 47.77026 19.30299 35137 ft 490 kts 124°
2026-05-04 07:16 47.73095 19.38578 35154 ft 491 kts 124°
2026-05-04 07:16 47.69171 19.46817 35158 ft 493 kts 124°
2026-05-04 07:17 47.65205 19.55119 35162 ft 492 kts 124°
2026-05-04 07:17 47.61240 19.63394 35162 ft 492 kts 124°
2026-05-04 07:18 47.57263 19.71665 35163 ft 492 kts 124°
2026-05-04 07:18 47.53282 19.79922 35166 ft 493 kts 124°
2026-05-04 07:19 47.49306 19.88147 35165 ft 491 kts 124°
2026-05-04 07:19 47.45327 19.96349 35169 ft 491 kts 124°
2026-05-04 07:20 47.41346 20.04536 35180 ft 491 kts 124°
2026-05-04 07:20 47.37356 20.12710 35180 ft 490 kts 124°
2026-05-04 07:22 47.21370 20.45235 35187 ft 492 kts 124°
2026-05-04 07:23 47.17347 20.53362 35187 ft 491 kts 124°
2026-05-04 07:23 47.13319 20.61470 35185 ft 490 kts 124°
2026-05-04 07:24 47.09302 20.69537 35181 ft 488 kts 124°
2026-05-04 07:24 47.05281 20.77587 35182 ft 490 kts 124°
2026-05-04 07:26 46.89104 21.09734 35187 ft 490 kts 124°
2026-05-04 07:27 46.85055 21.17727 35186 ft 489 kts 125°
2026-05-04 07:27 46.80997 21.25708 35186 ft 489 kts 125°
2026-05-04 07:28 46.76962 21.33625 35187 ft 489 kts 125°
2026-05-04 07:28 46.72902 21.41567 35185 ft 488 kts 125°
2026-05-04 07:29 46.68865 21.49523 35189 ft 487 kts 120°
2026-05-04 07:29 46.65604 21.58148 35193 ft 488 kts 116°
2026-05-04 07:30 46.62371 21.66834 35190 ft 488 kts 116°
2026-05-04 07:30 46.59132 21.75510 35195 ft 487 kts 116°
2026-05-04 07:31 46.56439 21.82702 35195 ft 487 kts 116°
2026-05-04 07:33 46.43447 22.17130 35191 ft 485 kts 117°
2026-05-04 07:33 46.40191 22.25691 35192 ft 485 kts 117°
2026-05-04 07:34 46.36923 22.34255 35185 ft 486 kts 117°
2026-05-04 07:34 46.33643 22.42824 35182 ft 487 kts 117°
2026-05-04 07:35 46.30353 22.51392 35180 ft 488 kts 117°
2026-05-04 07:35 46.27051 22.59963 35184 ft 487 kts 117°
2026-05-04 07:36 46.23750 22.68508 35184 ft 487 kts 117°
2026-05-04 07:38 46.10526 23.02467 35165 ft 484 kts 118°
2026-05-04 07:38 46.07206 23.10924 35168 ft 486 kts 118°
2026-05-04 07:39 46.03899 23.19329 35171 ft 486 kts 118°
2026-05-04 07:39 46.00557 23.27787 35172 ft 486 kts 118°
2026-05-04 07:40 45.97214 23.36231 35172 ft 486 kts 118°
2026-05-04 07:40 45.93859 23.44676 35160 ft 486 kts 118°
2026-05-04 07:41 45.90499 23.53105 35165 ft 487 kts 118°
2026-05-04 07:41 45.87129 23.61541 35167 ft 488 kts 118°
2026-05-04 07:42 45.83748 23.69971 35165 ft 487 kts 118°
2026-05-04 07:42 45.80362 23.78389 35166 ft 487 kts 118°
2026-05-04 07:43 45.76972 23.86794 35167 ft 487 kts 118°
2026-05-04 07:43 45.73573 23.95194 35166 ft 487 kts 118°
2026-05-04 07:44 45.70179 24.03557 35164 ft 485 kts 118°
2026-05-04 07:44 45.66784 24.11894 35161 ft 484 kts 118°
2026-05-04 07:45 45.63406 24.20172 35161 ft 485 kts 119°
2026-05-04 07:45 45.59996 24.28498 35164 ft 486 kts 119°
2026-05-04 07:46 45.56572 24.36834 35167 ft 487 kts 119°
2026-05-04 07:46 45.53140 24.45164 35163 ft 486 kts 119°
2026-05-04 07:47 45.49710 24.53466 35153 ft 485 kts 119°
2026-05-04 07:49 45.35968 24.86478 35144 ft 484 kts 120°
2026-05-04 07:49 45.32524 24.94697 35145 ft 483 kts 120°
2026-05-04 07:50 45.29077 25.02888 35143 ft 483 kts 120°
2026-05-04 07:50 45.25628 25.11069 35139 ft 482 kts 120°
2026-05-04 07:51 45.22175 25.19225 35143 ft 482 kts 120°
2026-05-04 07:51 45.18739 25.27331 35139 ft 483 kts 121°
2026-05-04 07:52 45.15262 25.35500 35135 ft 484 kts 121°
2026-05-04 07:52 45.11787 25.43646 35134 ft 482 kts 121°
2026-05-04 07:54 44.97861 25.76052 35117 ft 480 kts 121°
2026-05-04 07:55 44.94381 25.84089 35113 ft 479 kts 121°
2026-05-04 07:55 44.90903 25.92101 35113 ft 479 kts 121°
2026-05-04 07:56 44.87404 26.00141 35117 ft 482 kts 121°
2026-05-04 07:56 44.83889 26.08195 35105 ft 481 kts 122°
2026-05-04 07:57 44.80389 26.16186 35105 ft 478 kts 122°
2026-05-04 07:57 44.76893 26.24153 35103 ft 478 kts 122°
2026-05-04 07:58 44.73392 26.32103 35106 ft 478 kts 122°
2026-05-04 07:58 44.69888 26.40043 35104 ft 478 kts 122°
2026-05-04 07:59 44.66371 26.47989 35106 ft 479 kts 122°
2026-05-04 07:59 44.62841 26.55940 35076 ft 479 kts 122°
2026-05-04 08:00 44.59339 26.63807 35076 ft 478 kts 122°
2026-05-04 08:02 44.45244 26.95256 35081 ft 476 kts 122°
2026-05-04 08:02 44.41715 27.03076 35076 ft 474 kts 122°
2026-05-04 08:03 44.38192 27.10863 35078 ft 473 kts 122°
2026-05-04 08:03 44.34666 27.18633 35077 ft 473 kts 122°
2026-05-04 08:04 44.31132 27.26403 35067 ft 474 kts 122°
2026-05-04 08:04 44.27598 27.34149 35064 ft 472 kts 122°
2026-05-04 08:05 44.24068 27.41867 35059 ft 471 kts 122°
2026-05-04 08:05 44.20546 27.49546 35065 ft 470 kts 122°
2026-05-04 08:06 44.17044 27.57163 35052 ft 469 kts 122°
2026-05-04 08:06 44.13519 27.64809 35055 ft 469 kts 122°
2026-05-04 08:08 43.99400 27.95232 35043 ft 466 kts 122°
2026-05-04 08:11 43.83488 28.29144 35048 ft 468 kts 122°
2026-05-04 08:11 43.78125 28.40485 35043 ft 469 kts 123°
2026-05-04 08:12 43.74545 28.48028 35041 ft 468 kts 123°
2026-05-04 08:12 43.71020 28.55574 35040 ft 467 kts 121°
2026-05-04 08:13 43.67565 28.63167 35039 ft 468 kts 122°
2026-05-04 08:13 43.64047 28.70735 35039 ft 468 kts 122°
2026-05-04 08:14 43.60546 28.78329 35040 ft 469 kts 122°
2026-05-04 08:16 43.46455 29.08573 35041 ft 469 kts 122°
2026-05-04 08:16 43.42915 29.16118 35040 ft 469 kts 122°
2026-05-04 08:17 43.39366 29.23671 35035 ft 471 kts 122°
2026-05-04 08:17 43.35799 29.31238 35038 ft 472 kts 122°
2026-05-04 08:19 43.22116 29.60094 35029 ft 469 kts 122°
2026-05-04 08:20 43.18544 29.67578 35031 ft 470 kts 122°
2026-05-04 08:20 43.14958 29.75079 35027 ft 471 kts 122°
2026-05-04 08:21 43.11357 29.82586 35027 ft 472 kts 122°
2026-05-04 08:21 43.07753 29.90084 35028 ft 472 kts 122°
2026-05-04 08:22 43.04141 29.97578 35029 ft 472 kts 122°
2026-05-04 08:24 42.89647 30.27459 34980 ft 473 kts 122°
2026-05-04 08:24 42.85995 30.34940 34983 ft 474 kts 122°
2026-05-04 08:25 42.82333 30.42428 34980 ft 475 kts 122°
2026-05-04 08:25 42.78658 30.49917 34979 ft 475 kts 122°
2026-05-04 08:27 42.71459 30.83668 34971 ft 472 kts 97°
2026-05-04 08:28 42.70547 30.92494 34971 ft 471 kts 97°
2026-05-04 08:28 42.69640 31.01308 34968 ft 470 kts 97°
2026-05-04 08:29 42.68720 31.10111 34957 ft 470 kts 97°
2026-05-04 08:31 42.64977 31.45350 34948 ft 473 kts 97°
2026-05-04 08:33 42.61105 31.80735 34955 ft 475 kts 98°
2026-05-04 08:35 42.57139 32.16087 34883 ft 473 kts 98°
2026-05-04 08:35 42.56124 32.24902 34884 ft 473 kts 98°
2026-05-04 08:37 42.52530 32.55780 34880 ft 474 kts 98°
2026-05-04 08:38 42.51487 32.64600 34880 ft 473 kts 98°
2026-05-04 08:38 42.50439 32.73402 34866 ft 473 kts 98°
2026-05-04 08:40 42.46171 33.08646 34856 ft 474 kts 99°
2026-05-04 08:41 42.45087 33.17442 34847 ft 473 kts 99°
2026-05-04 08:41 42.43997 33.26223 34845 ft 473 kts 99°
2026-05-04 08:42 42.42901 33.35003 34846 ft 474 kts 99°
2026-05-04 08:42 42.41791 33.43824 34843 ft 476 kts 99°
2026-05-04 08:43 42.40674 33.52663 34843 ft 476 kts 99°
2026-05-04 08:43 42.39555 33.61460 34828 ft 473 kts 99°
2026-05-04 08:44 42.38439 33.70175 34822 ft 473 kts 99°
2026-05-04 08:46 42.33872 34.05356 34795 ft 475 kts 100°
2026-05-04 08:46 42.32717 34.14134 34793 ft 474 kts 100°
2026-05-04 08:47 42.31557 34.22895 34794 ft 473 kts 100°
2026-05-04 08:47 42.30389 34.31659 34786 ft 475 kts 100°
2026-05-04 08:48 42.29213 34.40450 34794 ft 476 kts 100°
2026-05-04 08:48 42.28024 34.49241 34801 ft 476 kts 100°
2026-05-04 08:49 42.26831 34.58031 34790 ft 476 kts 100°
2026-05-04 08:50 42.22606 34.88693 34793 ft 475 kts 101°
2026-05-04 08:51 42.21381 34.97450 34795 ft 475 kts 101°
2026-05-04 08:51 42.20150 35.06200 34794 ft 475 kts 101°
2026-05-04 08:52 42.18911 35.14957 34794 ft 476 kts 101°
2026-05-04 08:52 42.17663 35.23727 34789 ft 476 kts 101°
2026-05-04 08:54 42.12613 35.58760 34791 ft 476 kts 102°
2026-05-04 08:55 42.11334 35.67508 34806 ft 476 kts 102°
2026-05-04 08:55 42.10050 35.76260 34807 ft 477 kts 102°
2026-05-04 09:01 41.96105 36.68266 34815 ft 480 kts 103°
2026-05-04 09:01 41.94741 36.76986 34803 ft 480 kts 103°
2026-05-04 09:02 41.93364 36.85756 34809 ft 480 kts 103°
2026-05-04 09:02 41.91976 36.94539 34808 ft 482 kts 103°
2026-05-04 09:03 41.90597 37.03341 34814 ft 480 kts 99°
2026-05-04 09:03 41.90267 37.12335 34817 ft 485 kts 92°
2026-05-04 09:04 41.90162 37.21410 34829 ft 486 kts 93°
2026-05-04 09:04 41.90010 37.30484 34822 ft 486 kts 93°
2026-05-04 09:05 41.89872 37.39559 34826 ft 486 kts 93°
2026-05-04 09:05 41.89718 37.48614 34825 ft 485 kts 93°
2026-05-04 09:06 41.89587 37.56130 34815 ft 484 kts 93°
2026-05-04 09:08 41.88887 37.92312 34818 ft 483 kts 94°
2026-05-04 09:08 41.88693 38.01340 34825 ft 484 kts 94°
2026-05-04 09:09 41.88494 38.10377 34821 ft 484 kts 94°
2026-05-04 09:09 41.88286 38.19407 34833 ft 485 kts 94°
2026-05-04 09:10 41.88073 38.28464 34836 ft 486 kts 94°